Temp
0 0 1 1 1 1 1 1 1 2 2 2 2 2 2 2 2 2 2 3 3 4 6 7 7 9 11 11 10 9 9 8 8 9 10 10 11 13 14 15 13 12 11 9 9 10 10 15 14 12 13 11 11 10
0 0 0 1 1 1 1 1 1 1 2 2 2 2 1 2 2 2 2 2 2 2 3 5 5 5 6 6 7 8 10 11 10 10 11 11 11 13 13 12 16 13 14 13 14 13 14 14 14 12 11 10 10 9
-0 0 0 0 0 0 1 1 1 1 1 1 1 2 1 1 1 1 1 2 1 1 2 3 4 5 6 6 6 7 9 10 10 10 11 11 11 14 12 12 14 15 15 13 14 15 15 14 13 12 10 9 7 6
-0 -0 -0 0 0 0 0 1 1 1 1 1 0 1 1 1 1 1 1 2 2 1 1 2 4 4 5 6 5 6 6 7 7 7 9 10 10 11 12 12 12 13 13 13 12 13 12 12 13 12 10 6 4 3
-0 -0 -0 -0 -0 -0 -0 0 0 0 0 0 0 1 1 1 1 1 1 1 2 2 1 1 2 3 4 4 5 5 6 7 7 7 8 8 10 9 9 8 10 12 12 11 10 12 13 13 12 10 8 5 3 2
-0 -0 -1 -0 -0 0 0 0 0 0 0 0 0 1 1 1 1 0 0 1 2 2 2 2 0 2 4 3 3 4 5 6 6 6 6 6 5 8 7 7 10 9 10 11 11 12 12 10 8 8 7 5 2 1
-1 -0 -0 -0 -0 -0 -0 0 0 0 0 -0 0 0 0 1 0 0 1 2 2 1 1 1 1 0 1 2 2 3 3 5 5 5 6 7 6 6 7 7 10 11 11 11 11 11 9 7 8 6 5 3 1 2
-1 -1 -1 -0 -0 -0 0 0 -0 -0 -0 -0 0 0 0 0 0 0 1 2 2 1 1 1 1 0 1 1 2 2 3 3 4 5 5 6 8 6 5 9 9 9 10 10 10 10 10 10 7 5 3 2 1 1
-0 -0 -1 -1 -1 -1 -1 -0 -0 -0 -0 0 0 0 -0 -1 -0 0 1 1 2 1 0 1 4 3 -0 1 2 1 2 3 5 5 6 7 8 8 9 9 9 10 10 9 10 10 10 8 7 4 2 2 1 0
-0 -0 -0 -0 -1 -1 -1 -1 -0 -0 -0 0 -1 -1 -0 -1 0 0 -0 1 0 0 1 4 6 3 0 1 2 2 2 4 4 6 6 7 8 8 8 9 9 9 10 10 10 10 10 9 5 4 2 2 1 -0
-0 -0 -0 -0 -0 -0 -0 -0 -0 -1 -1 -1 -0 -1 -0 -0 -0 -0 -1 -0 -1 0 1 5 4 2 1 2 2 3 3 5 4 6 6 7 7 7 8 8 8 8 9 9 9 10 9 6 5 3 2 1 0 -1
-0 -0 0 0 0 0 -0 -0 -0 -1 -1 -1 0 0 0 -0 -0 0 1 1 2 4 2 6 5 3 2 2 3 2 4 5 4 6 4 5 8 9 9 9 9 9 9 8 9 9 8 6 5 3 2 -0 -1 -3
-0 -0 -0 -0 0 0 -0 -0 -1 -0 -1 -0 -0 -0 -1 -0 1 1 2 2 4 1 6 6 5 3 2 4 4 5 3 3 6 3 5 8 9 9 10 10 8 7 8 8 8 8 8 6 4 2 -0 -2 -3 -4
-0 -0 -0 -0 -0 -0 -0 -1 -1 -1 -1 -1 -0 1 1 2 4 5 7 7 6 5 4 6 2 4 4 5 4 4 5 6 4 5 7 8 8 8 9 9 7 6 6 7 7 6 4 3 1 -1 -2 -3 -4 -4
0 -0 -0 -0 -0 -0 -1 -0 -1 -1 -0 -1 1 3 2 6 6 7 7 7 7 6 5 4 4 3 4 3 4 5 3 4 6 7 9 9 10 10 8 7 5 5 4 4 4 3 1 -0 -2 -3 -3 -3 -3 -3
0 -0 0 -0 -0 -0 -0 -0 -1 -1 -0 -0 1 4 4 6 5 6 7 7 7 6 5 4 2 3 2 5 3 3 5 6 8 9 9 9 9 7 6 5 4 4 3 3 2 -1 -1 -2 -3 -2 -4 -4 -2 -3
-0 0 0 0 -0 -0 -1 -1 -1 -1 -0 -0 1 4 4 4 4 5 6 6 6 5 4 5 4 4 7 6 6 8 7 8 9 9 9 9 7 6 4 3 2 2 1 1 -1 -3 -4 -4 -5 -4 -5 -3 -4 -4
0 0 1 -0 -0 -0 -1 -1 -1 -1 0 0 3 3 4 4 4 5 6 6 6 5 6 7 8 7 6 7 8 9 9 8 9 8 8 6 5 4 3 2 0 -0 0 -1 -3 -4 -5 -5 -5 -5 -5 -4 -6 -5
0 0 -0 -0 -0 -1 -1 -1 -0 1 -0 1 3 3 3 4 4 5 5 5 6 6 7 7 7 7 8 9 9 9 8 8 8 6 4 3 3 2 2 -0 -1 -1 -1 -3 -3 -4 -4 -4 -4 -5 -6 -6 -6 -7
1 1 -0 -0 -0 0 -1 -1 -0 1 2 0 1 2 2 3 3 4 4 5 5 5 6 7 8 9 9 9 7 8 8 7 7 4 3 1 1 1 -0 -1 -1 -1 -3 -3 -3 -4 -4 -4 -4 -5 -6 -5 -6 -7
-0 -0 -0 -1 -0 -1 -1 -1 -0 0 -0 0 -0 1 1 1 2 2 3 4 4 4 6 7 7 6 6 6 6 4 5 5 5 5 5 1 -0 -1 -2 -2 -2 -3 -3 -3 -4 -4 -4 -4 -4 -5 -6 -6 -6 -7
-1 -1 -1 -1 -1 -1 -1 -0 1 1 0 -0 1 1 1 1 2 2 2 2 4 5 6 7 5 3 4 5 5 4 5 5 3 4 3 2 -0 -1 -2 -2 -3 -3 -4 -4 -4 -4 -4 -4 -5 -6 -7 -6 -6 -6
-1 -1 -0 -0 -0 0 -1 -1 1 2 1 1 1 1 1 1 0 1 1 3 4 5 5 3 2 3 3 4 4 4 5 4 2 2 2 0 -0 -1 -2 -3 -4 -4 -4 -4 -4 -4 -4 -5 -6 -7 -6 -5 -5 -6
0 -0 -1 -1 1 -0 -1 0 2 2 1 3 3 2 2 0 -0 1 3 4 4 4 2 1 1 2 2 3 2 1 2 1 1 -0 -1 -1 -2 -3 -3 -4 -5 -5 -4 -4 -4 -4 -4 -5 -6 -5 -4 -4 -5 -6
-0 -2 -1 -0 1 0 1 1 2 3 2 2 3 1 1 -1 1 2 4 5 4 3 2 1 1 3 3 3 2 1 -0 1 0 -1 -2 -2 -3 -4 -5 -4 -4 -4 -4 -4 -4 -3 -4 -4 -4 -4 -4 -5 -6 -8
-0 -2 1 1 1 2 2 1 1 1 2 2 2 2 1 1 2 2 5 5 4 2 1 1 1 2 2 2 1 -0 -2 -2 -2 -2 -3 -4 -4 -4 -4 -4 -5 -5 -4 -2 -1 -2 -3 -3 -3 -4 -5 -6 -6 -7
0 -1 0 0 2 2 1 2 3 2 1 1 1 1 1 1 2 4 -1 -2 -2 -2 -2 -2 -1 0 0 -0 -1 -3 -4 -4 -4 -3 -4 -4 -5 -4 -4 -3 -3 -1 -1 -1 -1 -1 -1 -2 -3 -4 -5 -6 -6 -7
-1 -0 -1 -1 -0 1 0 1 1 1 2 3 2 1 1 3 3 -3 -4 -3 -3 -3 -3 -3 -2 -2 -2 -3 -4 -4 -5 -5 -5 -5 -6 -5 -5 -5 -4 -3 -1 -0 -0 -1 -1 -2 -2 -3 -4 -4 -5 -6 -6 -6
-2 -2 -1 -2 -2 -2 -1 -0 0 -1 -1 1 1 0 -2 -5 -6 -6 -5 -4 -4 -4 -4 -3 -4 -4 -4 -4 -5 -6 -6 -6 -5 -5 -5 -5 -4 -3 -2 -2 -1 -1 -1 -1 -2 -3 -4 -4 -5 -5 -6 -6 -6 -7
-3 -2 -2 -3 -2 -2 -3 -4 -3 -5 -4 -4 -4 -5 -6 -7 -7 -6 -6 -5 -5 -5 -5 -4 -4 -5 -5 -6 -6 -6 -5 -5 -4 -4 -3 -1 -1 -1 -1 -1 -1 -1 -2 -3 -3 -4 -5 -6 -6 -6 -6 -6 -7 -7
-4 -3 -3 -2 -3 -4 -5 -5 -5 -5 -5 -5 -4 -4 -5 -6 -6 -6 -6 -5 -5 -5 -5 -5 -5 -5 -4 -3 -3 -3 -4 -4 -3 -2 -1 -0 -0 -0 -1 -1 -1 -2 -3 -4 -4 -5 -5 -6 -6 -6 -6 -7 -7 -8
-4 -3 -2 -3 -3 -5 -5 -4 -4 -4 -4 -4 -4 -5 -5 -4 -5 -7 -6 -6 -5 -5 -5 -5 -4 -4 -4 -3 -3 -2 -2 -2 -2 -2 -1 -1 -1 -1 -1 -2 -3 -3 -4 -4 -5 -5 -6 -6 -6 -6 -7 -7 -8 -8
-4 -3 -3 -4 -3 -3 -5 -4 -3 -4 -4 -4 -5 -5 -6 -5 -5 -8 -7 -6 -6 -6 -5 -4 -3 -3 -3 -3 -2 -2 -2 -2 -2 -1 -1 -1 -2 -2 -2 -3 -3 -4 -4 -5 -5 -5 -6 -6 -7 -7 -7 -8 -8 -8
Height
1346 1354 1362 1371 1379 1389 1397 1404 1412 1419 1425 1433 1442 1449 1458 1466 1473 1478 1484 1489 1494 1493 1494 1494 1495 1493 1492 1492 1496 1499 1506 1507 1512 1512 1508 1511 1507 1500 1498 1492 1497 1508 1513 1521 1523 1518 1515 1492 1498 1504 1501 1504 1506 1508
1340 1349 1357 1365 1375 1383 1391 1400 1408 1414 1422 1429 1436 1445 1454 1462 1469 1477 1482 1486 1490 1493 1495 1495 1494 1494 1495 1496 1498 1497 1496 1496 1501 1503 1502 1503 1500 1496 1494 1497 1486 1494 1493 1500 1499 1498 1495 1496 1496 1500 1502 1503 1503 1505
1333 1342 1351 1359 1368 1378 1386 1394 1403 1410 1417 1425 1433 1441 1451 1458 1466 1472 1479 1483 1488 1491 1495 1494 1493 1495 1495 1496 1497 1499 1497 1497 1498 1497 1499 1498 1495 1490 1492 1491 1485 1485 1488 1491 1493 1490 1490 1492 1495 1498 1500 1501 1501 1503
1326 1335 1344 1352 1362 1372 1380 1389 1397 1406 1413 1422 1429 1437 1445 1454 1461 1469 1474 1480 1485 1490 1494 1490 1489 1491 1491 1494 1496 1497 1496 1497 1498 1499 1499 1497 1495 1494 1489 1488 1489 1487 1491 1491 1491 1491 1494 1492 1491 1492 1494 1496 1498 1499
1318 1327 1336 1346 1355 1364 1373 1382 1392 1401 1409 1418 1425 1433 1441 1450 1459 1467 1473 1476 1480 1487 1486 1487 1485 1488 1490 1492 1494 1495 1496 1496 1497 1498 1497 1497 1494 1497 1495 1497 1489 1487 1489 1491 1487 1489 1488 1487 1487 1489 1492 1493 1494 1496
1310 1319 1328 1338 1347 1357 1366 1376 1386 1396 1405 1414 1421 1429 1438 1448 1458 1466 1472 1472 1475 1480 1486 1484 1483 1485 1487 1489 1492 1494 1495 1495 1496 1496 1496 1497 1497 1498 1493 1489 1485 1488 1486 1483 1482 1484 1483 1483 1484 1486 1488 1489 1489 1491
1301 1310 1319 1330 1339 1349 1359 1370 1380 1391 1401 1410 1418 1427 1436 1445 1452 1456 1461 1463 1469 1475 1480 1485 1482 1482 1485 1488 1490 1492 1493 1495 1497 1496 1494 1494 1495 1495 1486 1477 1480 1478 1479 1478 1477 1479 1479 1479 1480 1482 1483 1484 1484 1489
1290 1300 1310 1321 1332 1342 1353 1364 1375 1386 1397 1406 1416 1425 1435 1444 1453 1456 1457 1460 1464 1472 1475 1478 1479 1482 1483 1484 1488 1490 1492 1495 1493 1492 1490 1490 1489 1488 1477 1469 1471 1474 1472 1469 1467 1469 1470 1473 1475 1477 1479 1480 1482 1485
1283 1292 1302 1310 1322 1334 1345 1358 1369 1381 1393 1404 1415 1426 1437 1441 1443 1444 1456 1460 1460 1467 1464 1468 1466 1472 1479 1481 1484 1488 1490 1491 1488 1484 1484 1484 1477 1462 1459 1463 1464 1461 1455 1457 1460 1461 1462 1465 1469 1473 1475 1476 1478 1482
1280 1288 1297 1306 1316 1325 1338 1351 1364 1376 1389 1403 1417 1421 1422 1426 1438 1447 1455 1456 1454 1454 1459 1457 1458 1465 1474 1476 1480 1487 1487 1485 1480 1475 1477 1468 1453 1456 1457 1457 1454 1448 1451 1453 1452 1451 1453 1456 1462 1466 1469 1473 1475 1478
1275 1283 1292 1301 1310 1321 1332 1345 1358 1372 1387 1397 1401 1407 1415 1426 1436 1439 1439 1443 1439 1445 1446 1446 1453 1460 1467 1470 1476 1479 1478 1476 1474 1465 1466 1450 1440 1444 1448 1438 1435 1440 1443 1443 1444 1445 1448 1454 1458 1460 1462 1467 1471 1475
1266 1276 1285 1294 1304 1313 1324 1338 1352 1363 1369 1383 1393 1404 1413 1420 1423 1422 1425 1427 1428 1424 1430 1434 1441 1453 1461 1466 1468 1474 1471 1470 1462 1459 1463 1444 1435 1435 1430 1431 1431 1432 1431 1431 1434 1438 1442 1447 1452 1455 1458 1462 1467 1470
1257 1267 1278 1288 1298 1307 1321 1334 1347 1357 1366 1381 1391 1391 1394 1402 1403 1402 1405 1412 1410 1415 1416 1425 1435 1445 1454 1457 1458 1462 1462 1459 1454 1457 1439 1427 1429 1427 1426 1425 1425 1424 1423 1423 1425 1430 1434 1439 1445 1449 1454 1458 1462 1465
1253 1263 1274 1285 1296 1307 1319 1332 1344 1350 1366 1367 1370 1377 1385 1377 1377 1380 1380 1391 1399 1406 1413 1421 1435 1440 1444 1448 1450 1450 1448 1445 1447 1433 1419 1421 1421 1421 1420 1419 1419 1418 1417 1418 1421 1425 1429 1434 1439 1445 1450 1453 1456 1459
1250 1262 1273 1285 1296 1307 1319 1331 1339 1347 1358 1360 1361 1360 1365 1360 1365 1370 1374 1385 1391 1400 1410 1422 1429 1433 1437 1441 1440 1438 1440 1433 1418 1411 1410 1410 1413 1413 1413 1414 1414 1414 1414 1415 1419 1422 1425 1429 1434 1439 1445 1450 1453 1457
1249 1263 1273 1283 1295 1308 1321 1333 1343 1348 1352 1352 1352 1348 1355 1356 1361 1366 1371 1379 1387 1396 1409 1417 1424 1424 1425 1424 1429 1428 1420 1410 1399 1400 1405 1406 1406 1408 1409 1410 1410 1411 1412 1415 1418 1420 1423 1427 1432 1437 1444 1447 1451 1456
1248 1253 1267 1281 1295 1309 1322 1331 1338 1347 1347 1345 1345 1346 1351 1358 1359 1363 1368 1376 1384 1392 1401 1406 1408 1408 1407 1408 1407 1401 1395 1389 1396 1399 1400 1402 1404 1405 1406 1406 1406 1408 1410 1414 1417 1420 1424 1428 1433 1437 1441 1445 1450 1454
1248 1255 1268 1280 1288 1309 1320 1327 1332 1338 1337 1337 1340 1344 1348 1351 1356 1361 1365 1371 1378 1385 1390 1390 1392 1393 1394 1390 1385 1386 1387 1390 1393 1395 1396 1399 1401 1401 1402 1403 1404 1406 1409 1412 1415 1420 1423 1427 1432 1437 1440 1444 1449 1452
1245 1259 1273 1285 1291 1304 1318 1327 1329 1330 1336 1336 1337 1342 1347 1348 1353 1358 1360 1364 1369 1375 1381 1382 1382 1379 1378 1376 1378 1379 1382 1385 1389 1392 1394 1395 1396 1396 1398 1399 1401 1405 1409 1412 1415 1418 1423 1427 1431 1435 1438 1444 1447 1451
1253 1265 1277 1288 1301 1305 1313 1319 1324 1326 1330 1336 1339 1342 1344 1346 1353 1358 1361 1367 1370 1376 1376 1370 1367 1368 1371 1373 1375 1377 1379 1381 1384 1388 1389 1390 1391 1393 1395 1396 1399 1403 1407 1411 1415 1418 1422 1427 1431 1435 1438 1442 1446 1448
1265 1276 1287 1295 1302 1304 1308 1312 1315 1319 1327 1333 1338 1342 1347 1349 1354 1358 1361 1366 1369 1367 1367 1366 1367 1368 1369 1370 1372 1374 1375 1377 1380 1382 1384 1385 1387 1390 1392 1395 1398 1400 1404 1408 1411 1415 1420 1424 1428 1433 1436 1441 1443 1445
1267 1278 1288 1296 1302 1306 1308 1309 1312 1317 1326 1331 1338 1343 1347 1348 1353 1358 1361 1365 1362 1361 1363 1363 1364 1365 1367 1369 1370 1372 1373 1375 1377 1378 1379 1381 1384 1387 1389 1392 1396 1399 1402 1404 1409 1411 1417 1422 1427 1430 1433 1436 1439 1442
1274 1284 1292 1295 1295 1298 1309 1310 1314 1319 1325 1332 1338 1343 1347 1349 1352 1357 1359 1358 1353 1355 1358 1359 1361 1364 1365 1365 1367 1369 1371 1373 1375 1376 1375 1378 1381 1384 1387 1389 1392 1395 1399 1403 1407 1411 1415 1420 1424 1426 1429 1433 1436 1439
1279 1282 1288 1294 1299 1303 1307 1310 1311 1318 1324 1327 1333 1338 1342 1348 1353 1354 1349 1345 1346 1350 1351 1354 1357 1360 1361 1362 1363 1365 1367 1369 1371 1371 1373 1376 1378 1381 1384 1386 1388 1393 1398 1401 1404 1408 1411 1416 1420 1423 1426 1430 1433 1436
1280 1289 1290 1293 1296 1300 1304 1308 1310 1313 1319 1323 1326 1335 1339 1345 1345 1345 1339 1334 1339 1341 1345 1348 1350 1353 1354 1356 1359 1361 1361 1363 1366 1368 1370 1373 1375 1377 1380 1383 1388 1392 1395 1398 1401 1404 1409 1413 1417 1420 1424 1428 1431 1433
1281 1287 1289 1292 1295 1296 1299 1305 1309 1313 1316 1322 1325 1330 1335 1337 1338 1334 1329 1329 1332 1335 1337 1339 1342 1346 1348 1350 1353 1354 1355 1358 1362 1364 1365 1367 1370 1372 1375 1379 1384 1388 1391 1395 1398 1402 1406 1411 1414 1418 1422 1425 1428 1430
1282 1287 1289 1291 1292 1295 1300 1302 1303 1309 1315 1319 1322 1327 1329 1330 1328 1324 1327 1328 1330 1330 1331 1333 1337 1340 1343 1346 1348 1350 1351 1353 1356 1359 1361 1365 1369 1372 1375 1376 1380 1384 1388 1392 1397 1401 1405 1408 1413 1416 1419 1422 1424 1427
1286 1288 1290 1294 1295 1296 1298 1302 1306 1307 1308 1309 1315 1319 1319 1317 1318 1325 1325 1326 1326 1327 1329 1332 1335 1338 1340 1341 1342 1344 1347 1350 1353 1356 1361 1365 1369 1372 1375 1379 1383 1386 1389 1392 1396 1400 1404 1408 1411 1413 1416 1418 1420 1423
1288 1290 1292 1295 1297 1300 1302 1303 1304 1308 1310 1309 1312 1316 1321 1325 1325 1325 1324 1325 1326 1328 1329 1331 1332 1334 1335 1337 1339 1343 1346 1349 1350 1354 1358 1361 1364 1369 1373 1378 1381 1384 1388 1392 1396 1400 1404 1407 1409 1412 1414 1416 1418 1419
1292 1294 1296 1300 1301 1303 1307 1308 1309 1310 1312 1313 1315 1320 1323 1325 1325 1325 1325 1326 1327 1328 1329 1331 1332 1334 1335 1338 1341 1344 1347 1351 1355 1358 1359 1360 1364 1368 1372 1376 1380 1384 1387 1391 1394 1397 1401 1404 1407 1409 1411 1413 1414 1416
1291 1293 1296 1298 1301 1305 1306 1307 1309 1311 1312 1314 1315 1318 1321 1324 1325 1326 1326 1327 1328 1329 1330 1332 1335 1337 1339 1340 1342 1345 1349 1352 1355 1359 1362 1365 1368 1370 1374 1377 1381 1384 1387 1390 1394 1396 1399 1402 1404 1407 1408 1410 1412 1413
1292 1293 1294 1298 1303 1307 1307 1309 1310 1311 1313 1315 1316 1318 1320 1322 1326 1328 1328 1328 1329 1331 1332 1335 1337 1339 1341 1343 1346 1349 1352 1354 1357 1360 1363 1365 1368 1371 1375 1378 1381 1384 1387 1390 1393 1395 1398 1400 1402 1404 1406 1408 1409 1410
1294 1295 1296 1299 1302 1304 1307 1307 1309 1312 1314 1316 1318 1320 1322 1324 1327 1330 1330 1330 1331 1333 1335 1336 1338 1340 1343 1345 1348 1351 1354 1357 1359 1362 1364 1367 1370 1372 1375 1378 1381 1384 1387 1389 1391 1394 1396 1398 1400 1402 1403 1405 1406 1407
Wind_Speed
39 40 40 42 43 44 42 41 40 38 38 37 36 37 38 37 35 35 30 24 20 13 8 10 11 7 14 12 7 8 11 7 10 7 6 3 5 7 13 15 12 10 7 5 7 5 8 6 6 5 4 1 5 7
42 42 41 41 42 43 43 43 40 39 39 38 36 37 37 36 34 34 23 31 27 9 5 14 14 12 7 0 5 12 9 13 12 6 6 4 6 5 11 11 15 11 11 6 7 5 5 5 2 3 4 8 8 6
45 45 44 42 42 43 44 43 41 40 39 39 39 37 37 36 35 34 29 23 25 16 13 12 17 17 21 16 8 7 9 8 6 7 6 5 8 6 9 11 15 9 11 7 8 10 14 10 9 10 9 6 3 7
45 45 46 46 46 45 45 44 42 41 40 39 39 39 37 35 35 36 36 28 28 11 5 8 28 20 25 23 18 13 11 10 7 6 8 4 5 5 7 5 8 3 5 10 12 15 15 20 19 9 5 5 6 8
47 47 46 47 48 46 44 44 42 41 41 40 38 36 35 33 32 33 35 33 30 26 6 4 10 25 19 18 14 11 8 10 9 6 4 3 6 3 3 3 7 13 11 9 9 12 12 14 13 4 9 10 10 10
49 49 47 48 48 48 47 45 43 42 41 39 37 35 34 33 33 31 21 34 32 33 9 1 4 11 24 17 9 7 6 7 7 4 5 4 3 6 4 5 9 20 25 28 22 21 23 12 6 9 8 11 11 11
50 51 51 51 49 48 48 47 46 43 41 39 36 35 33 33 36 40 11 18 35 28 9 1 3 5 13 12 9 8 8 8 8 6 6 9 7 7 6 14 20 19 20 28 25 23 14 14 11 11 12 13 12 13
48 55 55 53 52 50 50 49 47 44 41 38 36 35 33 33 33 42 17 12 23 27 10 3 2 4 14 8 9 8 6 8 9 7 6 11 16 10 7 13 21 27 36 38 39 33 29 22 11 14 15 16 17 18
32 41 43 47 57 51 50 50 48 46 42 38 35 33 30 29 30 38 35 14 26 16 9 6 7 5 15 5 6 6 7 5 7 6 14 10 10 10 9 17 22 28 35 34 29 28 29 23 18 18 19 19 20 19
35 37 38 43 44 43 52 50 46 47 45 40 36 25 14 32 22 23 25 19 17 13 9 7 16 6 15 8 5 7 5 4 4 6 9 10 17 34 35 31 32 35 30 29 28 29 24 21 22 22 23 21 20 20
39 38 39 42 44 48 50 50 49 48 45 42 20 10 18 33 24 18 10 10 6 7 11 22 15 7 14 7 4 10 4 5 3 5 5 5 7 13 29 45 48 43 40 36 32 30 22 22 22 23 24 22 21 21
44 44 43 45 47 49 52 52 53 55 38 40 26 29 30 15 9 7 5 7 5 7 12 23 26 17 13 12 7 8 5 5 7 7 4 5 6 19 28 26 25 25 26 28 31 29 23 22 21 23 23 24 23 21
39 44 46 46 47 53 50 53 53 47 49 33 21 14 9 11 9 9 14 5 9 7 15 21 14 14 8 13 5 6 8 7 7 4 5 7 16 21 19 18 17 15 16 21 25 27 23 21 20 25 25 24 24 22
43 44 46 46 47 48 51 52 55 44 56 10 10 9 6 7 10 7 16 16 19 15 21 30 19 8 10 11 5 6 6 5 6 7 16 8 21 25 24 24 15 14 11 13 17 20 21 22 25 25 26 27 27 26
45 48 46 47 48 49 50 51 59 38 25 7 7 10 7 12 25 22 26 33 27 29 29 25 11 7 7 4 5 6 6 7 8 16 12 16 18 18 13 12 12 11 12 15 18 21 26 29 30 32 31 28 27 23
48 45 48 49 50 51 51 51 51 28 8 5 6 7 8 11 13 19 23 28 29 31 33 27 4 6 4 5 7 7 5 8 12 10 16 14 13 10 8 9 9 10 13 16 19 22 29 33 32 32 28 25 23 23
55 33 54 52 51 55 53 42 23 18 10 7 5 13 22 14 19 20 26 29 32 35 10 8 10 7 6 6 10 7 13 14 13 15 11 13 10 8 6 8 11 14 16 18 20 22 25 28 26 29 27 24 25 22
34 45 55 50 63 58 40 21 8 8 3 4 8 16 19 20 21 24 30 35 28 35 32 13 12 13 7 16 15 11 17 19 17 14 12 10 9 8 9 9 11 14 18 21 22 25 26 27 27 23 22 26 22 21
44 59 53 55 57 35 9 12 8 4 3 3 14 21 11 18 23 27 30 41 40 47 22 15 8 12 11 9 14 19 21 20 17 13 10 9 9 11 10 12 14 17 20 22 25 25 25 25 22 21 22 23 18 18
57 56 59 57 45 12 5 6 9 7 5 6 10 14 10 13 20 22 24 33 29 30 12 8 10 11 16 20 10 13 14 14 15 12 10 9 10 11 12 14 16 20 21 22 22 24 24 21 19 20 21 20 19 18
55 56 56 46 18 5 5 7 4 7 10 7 15 10 7 16 16 15 20 28 13 9 10 13 17 11 11 12 12 9 11 13 13 10 9 11 11 11 13 14 18 21 24 26 26 24 24 21 20 19 22 22 20 16
39 56 39 20 6 9 5 4 10 8 6 12 10 6 6 6 8 14 18 11 12 24 20 15 10 10 12 10 10 9 10 12 11 12 11 11 14 15 17 18 21 23 25 28 25 29 23 20 21 20 25 25 19 17
40 35 19 6 2 5 5 7 5 6 4 8 9 5 3 4 8 15 4 10 18 21 23 14 10 11 10 13 13 12 12 11 10 9 11 11 12 14 16 19 21 27 26 24 22 28 25 22 25 24 23 22 19 17
31 5 4 5 3 4 6 3 6 7 7 6 5 5 6 4 14 5 6 9 17 16 16 16 15 13 13 14 13 12 14 12 10 10 11 13 15 16 17 19 22 24 22 24 26 27 27 28 27 24 21 21 20 16
4 3 3 4 4 5 5 3 3 3 4 4 5 4 5 7 5 7 5 5 19 21 19 19 19 20 20 17 14 13 15 14 13 13 13 15 16 17 17 18 20 21 25 28 28 28 27 27 24 22 21 21 19 16
5 3 2 3 3 4 5 5 5 6 6 3 4 7 6 4 5 6 5 9 13 16 26 29 23 20 19 17 15 15 14 15 14 16 15 17 19 25 29 29 27 24 26 27 24 26 25 25 24 23 22 20 18 16
4 3 4 4 6 8 5 5 9 5 4 6 6 7 5 6 8 3 1 4 4 7 14 20 18 16 15 14 12 12 14 15 14 13 14 16 19 21 30 35 34 28 26 24 23 22 21 23 24 23 21 19 17 16
4 3 5 5 5 4 5 4 5 4 3 6 11 6 7 5 2 1 3 5 7 6 8 12 14 12 12 14 16 17 17 19 20 20 23 20 20 22 26 23 21 19 21 20 20 20 20 21 21 20 19 17 16 15
3 5 6 7 5 4 2 2 3 3 2 8 5 3 3 3 0 1 5 7 10 11 16 18 18 18 17 16 15 19 23 26 28 31 26 24 26 25 24 20 17 18 18 19 20 21 20 18 17 16 15 15 14 13
4 4 4 3 3 2 2 1 5 6 5 6 7 6 5 3 4 5 6 7 11 12 15 17 18 18 20 22 22 21 24 23 25 24 26 27 25 25 23 21 19 21 22 23 24 24 22 19 17 16 16 15 13 12
4 4 4 3 3 4 8 10 10 10 7 6 9 8 8 7 7 7 9 10 11 13 15 18 18 17 20 22 24 26 25 23 23 21 18 17 18 20 20 20 19 21 22 22 21 20 19 18 16 14 13 12 11 11
3 2 4 3 4 7 6 3 3 4 4 4 4 6 5 4 4 3 5 10 9 12 15 17 18 18 18 20 21 20 19 19 18 15 12 13 16 17 18 18 18 18 18 18 18 18 17 15 14 12 11 11 11 11
6 9 10 6 4 4 2 2 3 3 4 3 4 4 4 3 4 2 3 6 11 11 15 16 16 17 17 17 15 15 16 14 12 11 11 14 14 16 17 16 16 16 17 18 17 17 16 14 12 11 10 10 10 9
Wind_Direction
207 206 204 205 206 208 207 207 207 207 203 201 204 204 203 204 203 205 212 203 207 218 235 222 245 234 232 200 190 184 190 209 188 212 207 194 243 234 238 240 175 185 194 188 215 234 257 233 155 221 76 61 302 293
208 206 206 204 206 206 207 208 208 208 206 201 201 201 200 200 201 202 210 211 210 211 249 226 225 241 228 251 272 187 200 174 197 204 210 199 218 232 226 246 235 219 223 209 209 219 146 181 322 332 303 300 300 238
211 210 208 206 206 207 207 206 207 207 207 204 202 201 201 201 201 204 201 209 197 208 245 245 233 243 244 253 260 240 227 230 219 230 237 237 242 236 231 234 248 226 238 260 261 263 252 233 260 257 267 276 227 197
210 210 209 209 209 209 208 208 208 208 206 205 203 204 208 213 212 208 205 207 202 189 230 252 228 236 242 244 250 254 251 237 231 221 235 230 237 236 253 270 254 258 214 234 257 264 277 273 276 295 223 195 194 195
211 211 211 211 210 207 206 205 207 209 207 206 205 205 207 206 202 201 208 209 209 193 190 215 226 218 232 229 218 232 239 228 228 221 228 249 250 256 251 310 251 252 244 249 247 259 254 288 283 252 196 207 204 206
212 211 212 211 209 209 209 208 207 207 208 207 206 204 202 198 193 192 206 217 213 207 222 283 234 203 213 208 209 209 225 239 239 245 221 213 230 247 228 232 240 245 246 243 247 244 282 283 231 214 216 203 195 190
213 213 212 212 210 208 208 207 207 206 206 203 202 198 196 194 193 188 199 214 207 195 189 198 240 199 204 207 214 221 226 234 247 242 232 252 225 217 257 256 256 255 227 246 250 254 248 233 239 225 206 190 183 178
212 209 207 207 208 209 209 208 206 204 202 201 199 196 196 193 199 201 196 196 193 186 174 187 130 183 173 185 198 202 219 220 235 236 237 244 251 220 252 252 243 242 249 252 253 252 253 251 231 210 194 182 178 183
203 203 204 205 204 206 204 204 204 202 198 195 192 188 187 190 198 206 202 198 191 186 177 178 175 188 175 157 163 159 186 214 235 239 229 233 226 228 232 244 246 242 240 245 252 253 246 228 227 208 198 191 189 189
203 203 203 202 204 203 197 197 197 196 194 187 179 181 183 198 194 185 187 194 200 190 191 210 219 169 172 161 137 139 188 220 228 229 236 240 247 250 257 265 260 253 255 255 254 248 239 221 208 205 204 202 196 191
206 206 206 204 201 201 199 195 191 188 183 178 184 187 173 173 166 178 184 192 162 160 197 205 197 141 182 168 151 196 193 193 243 204 216 238 248 233 241 242 249 257 258 256 252 248 232 221 215 206 200 197 192 187
214 210 206 205 201 200 196 187 189 187 173 179 172 164 142 167 195 176 190 169 203 180 172 195 182 159 163 168 163 179 200 204 236 139 213 248 251 245 250 256 263 263 260 252 241 240 222 217 217 209 196 188 185 181
207 198 197 196 195 194 185 184 187 181 174 151 172 165 168 173 178 192 168 195 178 190 185 190 163 147 153 191 152 180 208 215 155 216 239 249 258 258 265 269 271 273 255 248 235 228 225 213 205 193 185 180 176 174
191 188 187 186 185 180 181 185 183 171 166 185 162 149 212 171 180 190 192 189 182 165 177 172 153 160 178 189 162 203 210 179 221 239 246 243 251 264 271 271 257 258 240 220 206 196 190 184 179 179 178 177 174 179
183 182 182 182 180 181 181 182 177 158 173 178 178 191 207 195 176 192 186 180 178 182 163 162 164 133 176 153 198 206 191 218 225 243 249 249 258 267 271 251 244 236 211 193 184 181 181 177 177 178 181 176 185 188
175 174 181 178 179 179 176 176 180 182 174 230 195 177 187 193 168 168 171 174 176 170 166 165 157 175 179 177 182 199 214 225 237 235 249 260 249 244 235 228 220 207 191 183 177 178 183 182 178 178 169 179 182 183
168 168 176 175 177 177 174 159 167 183 197 196 194 180 161 170 169 169 171 166 171 164 170 177 183 186 163 205 208 208 223 237 246 252 255 246 235 212 206 216 201 189 178 177 172 170 171 170 166 165 171 176 177 180
170 169 170 173 170 163 161 171 154 166 196 203 151 155 171 170 170 169 169 169 169 175 178 194 193 204 201 215 219 227 238 240 244 254 236 214 216 204 197 195 194 178 174 172 170 167 164 165 164 166 172 170 174 180
158 162 159 162 154 145 140 161 177 140 123 120 147 157 166 172 181 175 175 179 182 180 183 193 205 206 212 220 227 230 231 226 225 222 220 212 205 207 200 192 176 171 171 170 168 166 167 167 167 167 168 169 171 176
159 158 163 167 158 146 114 126 159 155 144 146 152 157 140 146 168 176 176 177 176 190 211 220 224 228 219 227 229 232 228 221 203 192 200 198 206 202 186 182 170 169 167 166 165 164 160 161 165 170 172 171 176 177
151 159 162 154 161 112 110 133 133 109 112 114 125 126 127 142 156 167 167 175 189 206 217 213 225 214 215 213 210 193 188 182 187 199 207 192 196 182 179 173 170 169 168 169 168 166 164 167 168 171 173 176 181 177
133 153 151 148 130 173 126 85 116 103 100 129 114 105 125 130 148 165 168 192 214 211 216 226 204 202 201 193 185 185 192 184 190 202 199 202 179 179 178 178 176 176 174 174 171 170 166 168 170 173 180 183 184 190
132 144 148 145 73 59 102 120 108 130 122 132 124 122 145 139 150 141 176 215 223 219 218 221 195 192 190 204 206 211 214 211 216 217 219 188 183 183 181 181 180 175 172 168 174 172 168 171 180 183 182 185 192 197
134 96 111 116 122 105 141 132 124 109 121 158 142 139 135 114 149 209 220 219 215 209 206 200 196 198 215 224 225 225 224 215 203 208 198 184 181 184 182 177 179 176 176 171 178 173 184 187 186 185 190 194 199 202
84 74 106 79 116 120 117 109 111 109 129 146 128 143 135 151 178 196 227 224 207 202 204 204 207 216 227 234 221 211 221 211 203 202 196 190 182 173 169 168 174 174 180 182 182 189 188 189 188 193 197 201 202 202
78 26 90 124 155 124 151 130 146 144 126 125 155 122 146 167 181 218 207 222 210 209 214 209 210 214 218 216 213 211 218 210 200 203 200 192 189 184 170 169 169 176 188 193 195 190 190 191 195 199 202 204 207 211
105 84 81 83 113 126 96 83 127 115 143 160 163 159 161 183 213 188 135 195 207 220 217 219 211 213 215 209 206 201 204 206 201 201 187 181 182 183 183 181 183 185 186 190 192 198 201 199 202 203 203 205 212 218
86 122 137 127 108 84 112 122 147 157 156 156 150 178 183 199 147 105 223 237 237 229 208 195 194 198 197 192 208 215 197 176 175 166 150 157 170 179 183 186 194 195 195 195 194 196 202 207 205 203 205 211 219 223
84 109 101 86 73 68 63 96 133 92 138 171 160 144 126 99 81 249 251 217 201 205 197 188 186 197 204 208 193 186 183 178 170 162 164 164 167 172 177 184 188 188 190 192 194 198 200 201 202 206 211 218 226 231
121 135 110 103 112 121 114 100 133 132 124 122 115 118 107 98 89 126 131 165 182 187 199 202 191 181 170 169 167 164 167 168 171 175 175 172 175 178 179 184 188 190 191 192 194 192 193 197 203 208 212 217 225 231
109 102 90 87 92 88 109 118 114 117 110 98 111 122 122 134 92 95 138 157 170 173 170 164 163 171 169 168 166 166 167 171 177 185 192 194 188 187 187 189 190 191 192 194 196 196 197 200 207 211 214 218 229 238
72 94 126 112 116 135 127 103 88 92 117 121 109 112 110 110 89 52 90 123 136 150 162 166 167 167 172 171 168 170 174 172 174 180 181 182 183 185 186 187 186 188 192 193 196 198 199 205 208 208 214 222 234 242
106 110 105 100 131 139 86 128 115 103 65 80 72 78 60 63 94 85 96 149 150 156 162 166 162 157 155 156 157 158 162 165 168 173 172 170 177 182 183 185 186 187 191 196 197 197 199 202 205 210 218 227 236 244